DAL55 KBOS-KMCO

Flight info

Callsign DAL55
Flight time N/A
Altitude 40000
Route SSOXS7 SSOXS Q167 RIFLE HEADI Q97 SAWED MOXXY Q85 LPERD SNFLD3
Aircraft A339/H-SADE1E2E3GHIJ3J5M1P2RWXY/LB2D1

Departure

Time 2026-05-04 21:25
Airport Boston Logan International Airport (KBOS)

Arrival

Time N/A
Airport Orlando International Airport (KMCO)
Time Latitude Longitude Altitude Speed Heading
2026-05-04 21:01 42.37080 -71.01858 27 ft 0 kts 211°
2026-05-04 21:13 42.37086 -71.01853 28 ft 2 kts 211°
2026-05-04 21:13 42.37094 -71.01846 28 ft 1 kts 211°
2026-05-04 21:14 42.37107 -71.01837 28 ft 2 kts 198°
2026-05-04 21:14 42.37122 -71.01833 28 ft 2 kts 185°
2026-05-04 21:14 42.37136 -71.01833 28 ft 2 kts 172°
2026-05-04 21:14 42.37151 -71.01836 28 ft 2 kts 159°
2026-05-04 21:15 42.37164 -71.01845 28 ft 2 kts 147°
2026-05-04 21:15 42.37176 -71.01857 28 ft 2 kts 134°
2026-05-04 21:15 42.37181 -71.01865 28 ft 1 kts 129°
2026-05-04 21:15 42.37182 -71.01866 28 ft 0 kts 129°
2026-05-04 21:18 42.37179 -71.01862 28 ft 2 kts 128°
2026-05-04 21:19 42.37165 -71.01836 27 ft 4 kts 127°
2026-05-04 21:19 42.37143 -71.01791 27 ft 6 kts 117°
2026-05-04 21:19 42.37138 -71.01718 27 ft 9 kts 79°
2026-05-04 21:19 42.37175 -71.01641 27 ft 10 kts 50°
2026-05-04 21:20 42.37214 -71.01551 27 ft 11 kts 90°
2026-05-04 21:20 42.37177 -71.01456 27 ft 12 kts 132°
2026-05-04 21:20 42.37116 -71.01372 27 ft 12 kts 135°
2026-05-04 21:20 42.37056 -71.01292 27 ft 12 kts 135°
2026-05-04 21:21 42.36994 -71.01210 27 ft 12 kts 135°
2026-05-04 21:21 42.36987 -71.01112 27 ft 12 kts 40°
2026-05-04 21:21 42.37068 -71.01051 27 ft 14 kts 26°
2026-05-04 21:21 42.37164 -71.00990 26 ft 15 kts 25°
2026-05-04 21:22 42.37224 -71.00952 26 ft 7 kts 26°
2026-05-04 21:22 42.37280 -71.00915 26 ft 10 kts 25°
2026-05-04 21:22 42.37354 -71.00877 26 ft 12 kts 19°
2026-05-04 21:22 42.37441 -71.00835 26 ft 14 kts 20°
2026-05-04 21:23 42.37537 -71.00789 26 ft 15 kts 19°
2026-05-04 21:23 42.37640 -71.00740 26 ft 15 kts 19°
2026-05-04 21:23 42.37745 -71.00689 26 ft 16 kts 20°
2026-05-04 21:23 42.37832 -71.00613 26 ft 14 kts 73°
2026-05-04 21:24 42.37806 -71.00502 25 ft 10 kts 148°
2026-05-04 21:24 42.37732 -71.00500 25 ft 10 kts 197°
2026-05-04 21:24 42.37627 -71.00549 26 ft 35 kts 200°
2026-05-04 21:24 42.37186 -71.00766 26 ft 97 kts 199°
2026-05-04 21:25 42.36380 -71.01159 31 ft 147 kts 200°
2026-05-04 21:25 42.35339 -71.01658 378 ft 161 kts 202°
2026-05-04 21:25 42.34232 -71.01767 1025 ft 167 kts 169°
2026-05-04 21:25 42.33261 -71.00910 1711 ft 177 kts 139°
2026-05-04 21:26 42.32514 -70.99573 2141 ft 186 kts 134°
2026-05-04 21:26 42.31739 -70.98090 2448 ft 201 kts 132°
2026-05-04 21:26 42.31021 -70.96378 2751 ft 224 kts 111°
2026-05-04 21:26 42.30962 -70.94170 3056 ft 250 kts 80°
2026-05-04 21:27 42.31436 -70.91811 3356 ft 270 kts 74°
2026-05-04 21:27 42.31977 -70.89314 3720 ft 287 kts 75°
2026-05-04 21:27 42.32453 -70.86651 4267 ft 297 kts 79°
2026-05-04 21:27 42.32832 -70.83901 5007 ft 299 kts 80°
2026-05-04 21:28 42.33048 -70.81144 5718 ft 301 kts 95°
2026-05-04 21:28 42.32424 -70.78482 6331 ft 302 kts 126°
2026-05-04 21:28 42.30925 -70.76572 7035 ft 295 kts 158°
2026-05-04 21:28 42.29002 -70.75934 7762 ft 283 kts 186°
2026-05-04 21:29 42.27038 -70.76189 8422 ft 284 kts 192°
2026-05-04 21:29 42.25075 -70.76511 9116 ft 289 kts 190°
2026-05-04 21:29 42.23073 -70.76672 9769 ft 296 kts 187°
2026-05-04 21:29 42.20993 -70.76723 10432 ft 301 kts 185°
2026-05-04 21:30 42.18845 -70.76698 10810 ft 317 kts 183°
2026-05-04 21:30 42.16594 -70.76619 11111 ft 335 kts 182°
2026-05-04 21:30 42.14199 -70.76500 11415 ft 352 kts 181°
2026-05-04 21:30 42.11684 -70.76356 11725 ft 369 kts 181°
2026-05-04 21:31 42.06364 -70.76032 12727 ft 388 kts 181°
2026-05-04 21:31 42.03661 -70.75861 13453 ft 391 kts 181°
2026-05-04 21:31 42.00938 -70.75690 14152 ft 394 kts 181°
2026-05-04 21:32 41.98172 -70.75518 14864 ft 397 kts 181°
2026-05-04 21:32 41.95396 -70.75348 15576 ft 400 kts 181°
2026-05-04 21:32 41.92584 -70.75175 16295 ft 403 kts 181°
2026-05-04 21:32 41.89786 -70.75002 16937 ft 407 kts 181°
2026-05-04 21:33 41.86954 -70.74844 17583 ft 409 kts 183°
2026-05-04 21:33 41.84105 -70.75215 18197 ft 407 kts 196°
2026-05-04 21:33 41.81442 -70.76350 18839 ft 404 kts 207°
2026-05-04 21:33 41.78972 -70.78075 19417 ft 406 kts 213°
2026-05-04 21:34 41.76459 -70.79984 19947 ft 412 kts 214°
2026-05-04 21:34 41.73981 -70.81878 20471 ft 417 kts 214°
2026-05-04 21:34 41.71433 -70.83817 20824 ft 426 kts 213°
2026-05-04 21:34 41.68839 -70.85775 21260 ft 433 kts 213°
2026-05-04 21:35 41.66171 -70.87778 21784 ft 437 kts 213°
2026-05-04 21:35 41.63534 -70.89749 22264 ft 442 kts 213°
2026-05-04 21:35 41.60814 -70.91780 22761 ft 446 kts 213°
2026-05-04 21:35 41.58125 -70.93797 23204 ft 449 kts 214°
2026-05-04 21:36 41.55596 -70.96188 23634 ft 448 kts 224°
2026-05-04 21:36 41.53389 -70.99102 24092 ft 447 kts 233°
2026-05-04 21:36 41.51543 -71.02415 24530 ft 446 kts 240°
2026-05-04 21:36 41.49805 -71.05891 24984 ft 449 kts 241°
2026-05-04 21:37 41.48089 -71.09369 25446 ft 452 kts 241°
2026-05-04 21:37 41.46369 -71.12840 25906 ft 454 kts 241°
2026-05-04 21:37 41.44615 -71.16361 26357 ft 456 kts 241°
2026-05-04 21:37 41.42866 -71.19853 26773 ft 458 kts 241°
2026-05-04 21:38 41.41100 -71.23367 27160 ft 460 kts 241°
2026-05-04 21:38 41.39328 -71.26887 27543 ft 462 kts 241°
2026-05-04 21:38 41.37531 -71.30451 27957 ft 464 kts 241°
2026-05-04 21:38 41.35743 -71.33987 28477 ft 462 kts 241°
2026-05-04 21:39 41.33952 -71.37532 29067 ft 460 kts 242°
2026-05-04 21:39 41.32168 -71.41065 29641 ft 457 kts 241°
2026-05-04 21:39 41.30422 -71.44514 30199 ft 454 kts 242°
2026-05-04 21:39 41.28672 -71.47969 30705 ft 452 kts 242°
2026-05-04 21:40 41.26913 -71.51440 31204 ft 450 kts 242°
2026-05-04 21:40 41.25158 -71.54900 31618 ft 449 kts 242°
2026-05-04 21:40 41.23434 -71.58295 31992 ft 448 kts 242°
2026-05-04 21:40 41.21681 -71.61747 32352 ft 448 kts 242°
2026-05-04 21:41 41.19939 -71.65165 32712 ft 448 kts 241°
2026-05-04 21:41 41.18222 -71.68533 33058 ft 448 kts 241°
2026-05-04 21:41 41.16468 -71.71970 33355 ft 448 kts 241°
2026-05-04 21:41 41.14730 -71.75373 33682 ft 448 kts 241°
2026-05-04 21:42 41.12985 -71.78799 34024 ft 448 kts 241°
2026-05-04 21:42 41.11242 -71.82230 34312 ft 449 kts 241°
2026-05-04 21:42 41.09502 -71.85651 34553 ft 450 kts 241°
2026-05-04 21:42 41.07755 -71.89083 34792 ft 451 kts 241°
2026-05-04 21:43 41.05995 -71.92538 35033 ft 451 kts 242°
2026-05-04 21:43 41.04335 -71.96006 35276 ft 449 kts 244°
2026-05-04 21:43 41.02800 -71.99611 35571 ft 445 kts 247°
2026-05-04 21:43 41.01426 -72.03275 35859 ft 441 kts 249°
2026-05-04 21:44 41.00149 -72.06904 36150 ft 439 kts 249°
2026-05-04 21:44 40.98859 -72.10562 36435 ft 437 kts 249°
2026-05-04 21:44 40.97583 -72.14180 36705 ft 436 kts 249°
2026-05-04 21:44 40.96293 -72.17830 36954 ft 434 kts 249°
2026-05-04 21:45 40.94988 -72.21387 37194 ft 434 kts 246°
2026-05-04 21:45 40.93540 -72.24870 37412 ft 434 kts 243°
2026-05-04 21:45 40.91958 -72.28251 37612 ft 435 kts 240°
2026-05-04 21:45 40.90230 -72.31545 37821 ft 436 kts 237°
2026-05-04 21:46 40.88366 -72.34726 38015 ft 437 kts 235°
2026-05-04 21:46 40.86387 -72.37759 38209 ft 438 kts 232°
2026-05-04 21:46 40.84306 -72.40631 38429 ft 438 kts 229°
2026-05-04 21:46 40.82148 -72.43464 38632 ft 437 kts 229°
2026-05-04 21:47 40.79949 -72.46230 38751 ft 440 kts 226°
2026-05-04 21:47 40.77629 -72.48843 38912 ft 441 kts 224°
2026-05-04 21:47 40.75252 -72.51417 39105 ft 441 kts 224°
2026-05-04 21:47 40.72888 -72.53997 39247 ft 442 kts 225°
2026-05-04 21:48 40.70620 -72.56663 39340 ft 441 kts 228°
2026-05-04 21:48 40.68441 -72.59495 39476 ft 441 kts 230°
2026-05-04 21:48 40.66372 -72.62471 39602 ft 440 kts 233°
2026-05-04 21:48 40.64400 -72.65582 39746 ft 439 kts 234°
2026-05-04 21:49 40.62455 -72.68686 39878 ft 440 kts 233°
2026-05-04 21:49 40.58555 -72.74903 39953 ft 442 kts 233°
2026-05-04 21:50 40.54628 -72.81152 39974 ft 442 kts 233°
2026-05-04 21:50 40.50699 -72.87394 39971 ft 443 kts 233°
2026-05-04 21:51 40.46819 -72.93548 39967 ft 443 kts 233°
2026-05-04 21:51 40.43019 -72.99566 39952 ft 443 kts 233°
2026-05-04 21:52 40.39086 -73.05778 39967 ft 443 kts 233°
2026-05-04 21:52 40.35162 -73.11966 39958 ft 443 kts 234°
2026-05-04 21:53 40.31209 -73.18191 39959 ft 443 kts 233°
2026-05-04 21:53 40.27288 -73.24349 39968 ft 443 kts 233°
2026-05-04 21:54 40.23336 -73.30543 39963 ft 444 kts 233°
2026-05-04 21:54 40.19395 -73.36706 39972 ft 445 kts 233°
2026-05-04 21:55 40.15419 -73.42917 39959 ft 448 kts 233°
2026-05-04 21:55 40.11415 -73.49157 39965 ft 451 kts 233°
2026-05-04 21:56 40.07403 -73.55396 39971 ft 451 kts 233°
2026-05-04 21:56 40.03355 -73.61670 39966 ft 451 kts 232°
2026-05-04 21:57 39.98932 -73.67534 39973 ft 456 kts 225°
2026-05-04 21:57 39.93888 -73.72566 39966 ft 460 kts 217°
2026-05-04 21:58 39.88353 -73.76635 39970 ft 466 kts 210°
2026-05-04 21:58 39.82352 -73.79943 39974 ft 467 kts 207°
2026-05-04 21:59 39.76340 -73.83138 39974 ft 467 kts 207°
2026-05-04 21:59 39.70348 -73.86321 39976 ft 466 kts 206°
2026-05-04 22:00 39.64375 -73.89490 39976 ft 467 kts 207°
2026-05-04 22:00 39.58358 -73.92680 39980 ft 467 kts 207°
2026-05-04 22:01 39.52329 -73.95869 39982 ft 467 kts 207°
2026-05-04 22:01 39.46434 -73.99200 39973 ft 464 kts 211°
2026-05-04 22:02 39.40829 -74.03232 40021 ft 460 kts 217°
2026-05-04 22:02 39.35603 -74.07949 40012 ft 456 kts 222°
2026-05-04 22:03 39.30751 -74.13166 40001 ft 454 kts 224°
2026-05-04 22:03 39.25949 -74.18402 39997 ft 454 kts 224°
2026-05-04 22:04 39.21123 -74.23649 40003 ft 454 kts 224°
2026-05-04 22:04 39.16309 -74.28877 39992 ft 453 kts 224°
2026-05-04 22:05 39.11490 -74.34100 40004 ft 453 kts 224°
2026-05-04 22:05 39.06672 -74.39309 40003 ft 454 kts 224°
2026-05-04 22:06 39.01840 -74.44529 39992 ft 453 kts 224°
2026-05-04 22:06 38.97021 -74.49723 39987 ft 455 kts 224°
2026-05-04 22:07 38.92254 -74.55037 39972 ft 453 kts 226°
2026-05-04 22:07 38.87691 -74.60383 39969 ft 452 kts 226°
2026-05-04 22:08 38.83039 -74.65820 39979 ft 451 kts 226°
2026-05-04 22:08 38.78378 -74.71259 39973 ft 452 kts 226°
2026-05-04 22:09 38.73677 -74.76566 39971 ft 454 kts 223°
2026-05-04 22:09 38.68779 -74.81674 39968 ft 454 kts 223°
2026-05-04 22:10 38.63887 -74.86772 39975 ft 454 kts 223°
2026-05-04 22:10 38.59010 -74.91843 39971 ft 454 kts 223°
2026-05-04 22:11 38.54122 -74.96914 39975 ft 453 kts 223°
2026-05-04 22:11 38.49318 -75.02196 39971 ft 452 kts 225°
2026-05-04 22:12 38.44453 -75.07233 39971 ft 454 kts 221°
2026-05-04 22:12 38.39378 -75.12058 39979 ft 455 kts 221°
2026-05-04 22:13 38.34311 -75.16873 39978 ft 455 kts 221°
2026-05-04 22:13 38.29243 -75.21680 39978 ft 453 kts 221°
2026-05-04 22:14 38.24166 -75.26484 39978 ft 453 kts 221°
2026-05-04 22:14 38.19142 -75.31235 39969 ft 452 kts 221°
2026-05-04 22:15 38.14101 -75.35986 39977 ft 451 kts 221°
2026-05-04 22:15 38.09022 -75.40770 39975 ft 453 kts 221°
2026-05-04 22:16 38.03962 -75.45494 39972 ft 454 kts 220°
2026-05-04 22:16 37.98735 -75.50047 39984 ft 454 kts 219°
2026-05-04 22:17 37.93534 -75.54542 39988 ft 453 kts 219°
2026-05-04 22:17 37.88422 -75.58981 39984 ft 452 kts 219°
2026-05-04 22:18 37.83163 -75.63422 39980 ft 454 kts 217°
2026-05-04 22:18 37.77699 -75.67542 39987 ft 455 kts 216°
2026-05-04 22:19 37.72361 -75.71564 39988 ft 454 kts 216°
2026-05-04 22:19 37.66950 -75.75632 39987 ft 455 kts 216°
2026-05-04 22:20 37.61510 -75.79710 39986 ft 454 kts 216°
2026-05-04 22:20 37.56118 -75.83768 39982 ft 452 kts 217°
2026-05-04 22:21 37.50995 -75.88232 39981 ft 447 kts 222°
2026-05-04 22:21 37.46140 -75.93116 39977 ft 446 kts 223°
2026-05-04 22:22 37.41312 -75.97980 39930 ft 445 kts 223°
2026-05-04 22:22 37.36462 -76.02861 39933 ft 446 kts 223°
2026-05-04 22:23 37.31632 -76.07717 39965 ft 446 kts 223°
2026-05-04 22:23 37.26762 -76.12601 39983 ft 445 kts 223°
2026-05-04 22:24 37.21942 -76.17431 39983 ft 445 kts 223°
2026-05-04 22:24 37.17108 -76.22268 39991 ft 443 kts 224°
2026-05-04 22:25 37.12285 -76.27086 39999 ft 444 kts 223°
2026-05-04 22:25 37.07482 -76.31873 39993 ft 442 kts 223°
2026-05-04 22:26 37.02684 -76.36649 40012 ft 441 kts 223°
2026-05-04 22:26 36.97867 -76.41436 40006 ft 442 kts 224°
2026-05-04 22:27 36.93057 -76.46209 40017 ft 442 kts 224°
2026-05-04 22:27 36.88256 -76.50964 40019 ft 442 kts 224°
2026-05-04 22:28 36.83443 -76.55723 40007 ft 441 kts 223°
2026-05-04 22:28 36.78625 -76.60477 40017 ft 441 kts 223°
2026-05-04 22:29 36.73814 -76.65221 40017 ft 441 kts 223°
2026-05-04 22:29 36.68988 -76.69967 40013 ft 441 kts 223°
2026-05-04 22:30 36.64171 -76.74699 40022 ft 440 kts 223°
2026-05-04 22:30 36.59379 -76.79398 40011 ft 440 kts 223°
2026-05-04 22:31 36.54584 -76.84092 40013 ft 439 kts 223°
2026-05-04 22:31 36.49772 -76.88797 39999 ft 440 kts 223°
2026-05-04 22:32 36.44941 -76.93510 39999 ft 441 kts 223°
2026-05-04 22:32 36.40136 -76.98193 40001 ft 440 kts 223°
2026-05-04 22:33 36.35326 -77.02871 40005 ft 441 kts 223°
2026-05-04 22:33 36.30504 -77.07555 40002 ft 440 kts 223°
2026-05-04 22:34 36.25665 -77.12247 40010 ft 440 kts 223°
2026-05-04 22:34 36.20869 -77.16891 40011 ft 441 kts 223°
2026-05-04 22:35 36.16056 -77.21539 40014 ft 440 kts 223°
2026-05-04 22:35 36.11228 -77.26199 40013 ft 441 kts 223°
2026-05-04 22:36 36.06362 -77.30885 40015 ft 441 kts 223°
2026-05-04 22:36 36.01546 -77.35534 40019 ft 441 kts 223°
2026-05-04 22:37 35.96735 -77.40196 40018 ft 441 kts 223°
2026-05-04 22:37 35.91895 -77.44878 40013 ft 440 kts 223°
2026-05-04 22:38 35.87079 -77.49523 40012 ft 440 kts 223°
2026-05-04 22:38 35.82232 -77.54194 40021 ft 441 kts 223°
2026-05-04 22:39 35.77425 -77.58817 40019 ft 441 kts 223°
2026-05-04 22:39 35.72586 -77.63464 40020 ft 441 kts 223°
2026-05-04 22:40 35.67702 -77.68148 40024 ft 442 kts 223°
2026-05-04 22:40 35.62869 -77.72772 40027 ft 442 kts 223°
2026-05-04 22:41 35.58013 -77.77415 40027 ft 441 kts 223°
2026-05-04 22:41 35.53182 -77.82027 40035 ft 441 kts 223°
2026-05-04 22:42 35.48319 -77.86659 40035 ft 440 kts 223°
2026-05-04 22:42 35.43510 -77.91232 40041 ft 441 kts 223°
2026-05-04 22:43 35.38653 -77.95847 40045 ft 441 kts 223°
2026-05-04 22:43 35.33800 -78.00449 40039 ft 442 kts 223°
2026-05-04 22:44 35.28936 -78.05055 40040 ft 441 kts 223°
2026-05-04 22:44 35.24101 -78.09626 40041 ft 441 kts 223°
2026-05-04 22:45 35.19244 -78.14211 40039 ft 441 kts 223°
2026-05-04 22:45 35.11962 -78.21070 40041 ft 441 kts 223°
2026-05-04 22:46 35.07118 -78.25626 40042 ft 441 kts 223°
2026-05-04 22:46 35.02253 -78.30192 40048 ft 440 kts 223°
2026-05-04 22:47 34.97406 -78.34735 40046 ft 440 kts 223°
2026-05-04 22:47 34.92577 -78.39256 40032 ft 440 kts 223°
2026-05-04 22:48 34.87726 -78.43788 40039 ft 441 kts 223°
2026-05-04 22:48 34.82838 -78.48353 40039 ft 441 kts 223°
2026-05-04 22:49 34.77980 -78.52881 40028 ft 441 kts 223°
2026-05-04 22:49 34.73114 -78.57408 40047 ft 440 kts 223°
2026-05-04 22:50 34.68234 -78.61943 40040 ft 441 kts 223°
2026-05-04 22:50 34.63382 -78.66444 40059 ft 441 kts 222°
2026-05-04 22:51 34.58470 -78.70993 40048 ft 441 kts 222°
2026-05-04 22:51 34.54337 -78.74815 40037 ft 442 kts 222°
2026-05-04 22:52 34.49448 -78.79331 40046 ft 442 kts 222°
2026-05-04 22:52 34.44524 -78.83847 40052 ft 443 kts 221°
2026-05-04 22:53 34.39433 -78.88176 40050 ft 443 kts 220°
2026-05-04 22:53 34.34369 -78.92455 40044 ft 443 kts 220°
2026-05-04 22:54 34.29317 -78.96716 40048 ft 444 kts 220°
2026-05-04 22:54 34.24224 -79.01000 40048 ft 443 kts 220°
2026-05-04 22:55 34.19165 -79.05250 40050 ft 443 kts 220°
2026-05-04 22:55 34.14079 -79.09514 40048 ft 443 kts 220°
2026-05-04 22:56 34.09014 -79.13757 40059 ft 444 kts 220°
2026-05-04 22:56 34.03955 -79.17985 40043 ft 444 kts 220°
2026-05-04 22:57 33.98893 -79.22216 40059 ft 444 kts 220°
2026-05-04 22:57 33.93818 -79.26453 40059 ft 444 kts 220°
2026-05-04 22:58 33.88762 -79.30666 40071 ft 444 kts 220°
2026-05-04 22:58 33.83680 -79.34895 40065 ft 442 kts 220°
2026-05-04 22:59 33.78585 -79.39129 40063 ft 443 kts 220°
2026-05-04 22:59 33.73540 -79.43315 40057 ft 443 kts 220°
2026-05-04 23:00 33.68439 -79.47540 40069 ft 443 kts 220°
2026-05-04 23:00 33.63387 -79.51720 40062 ft 443 kts 220°
2026-05-04 23:01 33.58317 -79.55908 40080 ft 443 kts 220°
2026-05-04 23:01 33.53269 -79.60072 40065 ft 442 kts 220°
2026-05-04 23:02 33.48191 -79.64253 40057 ft 443 kts 220°
2026-05-04 23:02 33.43058 -79.68476 40077 ft 443 kts 220°
2026-05-04 23:03 33.37977 -79.72650 40073 ft 443 kts 220°
2026-05-04 23:03 33.32898 -79.76813 40068 ft 443 kts 220°
2026-05-04 23:04 33.27828 -79.80963 40085 ft 443 kts 220°
2026-05-04 23:04 33.22740 -79.85123 40073 ft 443 kts 220°
2026-05-04 23:05 33.17641 -79.89284 40077 ft 444 kts 220°
2026-05-04 23:05 33.12539 -79.93443 40076 ft 443 kts 220°
2026-05-04 23:06 33.07446 -79.97588 40086 ft 442 kts 220°
2026-05-04 23:06 33.02359 -80.01722 40086 ft 442 kts 220°
2026-05-04 23:07 32.97262 -80.05857 40087 ft 443 kts 220°
2026-05-04 23:07 32.92180 -80.09977 40089 ft 443 kts 220°
2026-05-04 23:08 32.87060 -80.14118 40089 ft 441 kts 220°
2026-05-04 23:08 32.81977 -80.18229 40090 ft 441 kts 220°
2026-05-04 23:09 32.76913 -80.22313 40088 ft 440 kts 220°
2026-05-04 23:09 32.71851 -80.26394 40079 ft 441 kts 220°
2026-05-04 23:10 32.66794 -80.30463 40079 ft 440 kts 220°
2026-05-04 23:10 32.61714 -80.34546 40071 ft 440 kts 220°
2026-05-04 23:11 32.56554 -80.38511 40072 ft 442 kts 217°
2026-05-04 23:11 32.51223 -80.42123 40081 ft 444 kts 217°
2026-05-04 23:12 32.45891 -80.45729 40079 ft 443 kts 217°
2026-05-04 23:12 32.40515 -80.49354 40079 ft 442 kts 217°
2026-05-04 23:13 32.35180 -80.52947 40081 ft 443 kts 217°
2026-05-04 23:13 32.29853 -80.56529 40081 ft 441 kts 217°
2026-05-04 23:14 32.24519 -80.60112 40078 ft 440 kts 217°
2026-05-04 23:14 32.19173 -80.63696 40083 ft 440 kts 217°
2026-05-04 23:15 32.13819 -80.67281 40083 ft 440 kts 217°
2026-05-04 23:15 32.08508 -80.70834 40080 ft 440 kts 217°
2026-05-04 23:16 32.03169 -80.74399 40082 ft 439 kts 217°
2026-05-04 23:16 31.97843 -80.77952 40081 ft 438 kts 217°
2026-05-04 23:17 31.92532 -80.81490 40083 ft 438 kts 217°
2026-05-04 23:17 31.87225 -80.85020 40074 ft 438 kts 217°
2026-05-04 23:18 31.84565 -80.86790 39651 ft 439 kts 217°
2026-05-04 23:18 31.81904 -80.88556 39061 ft 439 kts 217°
2026-05-04 23:18 31.79260 -80.90311 38551 ft 438 kts 217°
2026-05-04 23:18 31.76633 -80.92054 38065 ft 439 kts 217°
2026-05-04 23:19 31.73973 -80.93819 37573 ft 440 kts 217°
2026-05-04 23:19 31.71286 -80.95599 37075 ft 440 kts 217°
2026-05-04 23:19 31.68640 -80.97352 36586 ft 441 kts 216°
2026-05-04 23:19 31.65946 -80.99132 36081 ft 443 kts 216°
2026-05-04 23:20 31.63279 -81.00893 35588 ft 445 kts 216°
2026-05-04 23:20 31.60561 -81.02689 35088 ft 447 kts 216°
2026-05-04 23:20 31.57848 -81.04472 34592 ft 450 kts 215°
2026-05-04 23:20 31.55081 -81.06196 34170 ft 453 kts 214°
2026-05-04 23:21 31.49470 -81.09602 34065 ft 454 kts 214°
2026-05-04 23:21 31.43860 -81.13020 34068 ft 454 kts 214°
2026-05-04 23:22 31.38237 -81.16454 34069 ft 454 kts 214°
2026-05-04 23:22 31.32716 -81.19752 34066 ft 454 kts 214°
2026-05-04 23:23 31.27098 -81.23076 34057 ft 454 kts 214°
2026-05-04 23:23 31.21193 -81.25994 34053 ft 465 kts 206°
2026-05-04 23:24 31.14791 -81.27770 34071 ft 477 kts 197°
2026-05-04 23:24 31.08108 -81.28277 34068 ft 486 kts 189°
2026-05-04 23:25 31.01306 -81.28261 34075 ft 487 kts 188°
2026-05-04 23:25 30.94539 -81.28225 34065 ft 487 kts 188°
2026-05-04 23:26 30.87727 -81.28204 34061 ft 488 kts 188°
2026-05-04 23:26 30.80920 -81.28186 34073 ft 488 kts 188°
2026-05-04 23:27 30.74126 -81.28168 34066 ft 489 kts 188°
2026-05-04 23:27 30.67325 -81.28150 34069 ft 489 kts 188°
2026-05-04 23:28 30.60487 -81.28106 34072 ft 491 kts 186°
2026-05-04 23:28 30.53639 -81.27648 34073 ft 494 kts 185°
2026-05-04 23:29 30.46779 -81.27131 34073 ft 493 kts 184°
2026-05-04 23:29 30.39945 -81.26617 34065 ft 491 kts 184°
2026-05-04 23:30 30.36576 -81.26358 33781 ft 488 kts 184°
2026-05-04 23:30 30.33161 -81.26102 33047 ft 490 kts 184°
2026-05-04 23:30 30.29753 -81.25848 32189 ft 493 kts 184°
2026-05-04 23:30 30.26348 -81.25597 31420 ft 495 kts 184°
2026-05-04 23:31 30.22890 -81.25339 30715 ft 494 kts 184°
2026-05-04 23:31 30.19465 -81.25082 30007 ft 493 kts 184°
2026-05-04 23:31 30.16068 -81.24826 29305 ft 492 kts 183°
2026-05-04 23:31 30.12666 -81.24570 28866 ft 485 kts 184°
2026-05-04 23:32 30.09357 -81.24318 28439 ft 479 kts 183°
2026-05-04 23:32 30.06033 -81.24069 27919 ft 476 kts 183°
2026-05-04 23:32 30.02721 -81.23823 27437 ft 471 kts 183°
2026-05-04 23:32 29.99499 -81.23583 26979 ft 467 kts 183°
2026-05-04 23:33 29.96269 -81.23341 26541 ft 462 kts 183°
2026-05-04 23:33 29.93048 -81.23099 26110 ft 457 kts 183°
2026-05-04 23:33 29.89885 -81.22864 25669 ft 453 kts 182°
2026-05-04 23:33 29.86757 -81.22630 25237 ft 448 kts 182°
2026-05-04 23:34 29.83643 -81.22398 24790 ft 445 kts 182°
2026-05-04 23:34 29.80569 -81.22171 24370 ft 441 kts 182°
2026-05-04 23:34 29.77504 -81.21942 23933 ft 437 kts 182°
2026-05-04 23:34 29.74504 -81.21718 23506 ft 433 kts 182°
2026-05-04 23:35 29.71467 -81.21492 23081 ft 430 kts 182°
2026-05-04 23:35 29.68506 -81.21260 22617 ft 428 kts 181°
2026-05-04 23:35 29.65523 -81.21007 22125 ft 426 kts 181°
2026-05-04 23:35 29.62566 -81.20752 21641 ft 424 kts 181°
2026-05-04 23:36 29.59650 -81.20499 21160 ft 423 kts 181°
2026-05-04 23:36 29.56712 -81.20245 20672 ft 421 kts 180°
2026-05-04 23:36 29.53776 -81.19992 20192 ft 419 kts 180°
2026-05-04 23:36 29.50886 -81.19744 19712 ft 417 kts 180°
2026-05-04 23:37 29.47993 -81.19496 19229 ft 416 kts 180°
2026-05-04 23:37 29.45121 -81.19251 18747 ft 414 kts 179°
2026-05-04 23:37 29.42238 -81.19003 18252 ft 412 kts 180°
2026-05-04 23:37 29.39355 -81.18755 17764 ft 411 kts 179°
2026-05-04 23:38 29.36489 -81.18507 17278 ft 409 kts 179°
2026-05-04 23:38 29.33649 -81.18265 16791 ft 407 kts 179°
2026-05-04 23:38 29.30811 -81.18024 16301 ft 405 kts 179°
2026-05-04 23:38 29.27999 -81.17780 15843 ft 403 kts 179°
2026-05-04 23:39 29.25234 -81.17536 15416 ft 400 kts 178°
2026-05-04 23:39 29.22453 -81.17291 14989 ft 396 kts 178°
2026-05-04 23:39 29.19690 -81.16895 14558 ft 395 kts 172°
2026-05-04 23:39 29.17019 -81.16160 14131 ft 394 kts 165°
2026-05-04 23:40 29.14362 -81.15098 13694 ft 392 kts 161°
2026-05-04 23:40 29.11780 -81.13965 13269 ft 390 kts 160°
2026-05-04 23:40 29.09278 -81.12853 12853 ft 387 kts 160°
2026-05-04 23:40 29.06746 -81.11746 12429 ft 384 kts 161°